Find Thaicom 1

NORAD ID: 22931 Int'l Des: 1993-078 Owner: SHINW Country: T operational
HEOCIRCULAR

Current View

Loading 3D Globe...

About Thaicom 1

Description loading...

Upcoming Passes

Passes for default location (London). Set your location on the main map for personalized predictions.

Altitude History

Loading altitude history...

Two-Line Element Set

1 22931U 93078B 26149.09778830 -.00000137 00000-0 00000+0 0 9999
2 22931 11.8852 34.9474 0003912 216.5345 134.2189 0.99181197 45974
Epoch: May 29, 2026 • Age: 29 hours

Current Status

Altitude 36109.6 km
Velocity 3.06 km/s
Sub-Earth Point 10.20°N, 98.59°E
Launch Date Dec 18, 1993
Age 32.4 years
Type other

Technical Details

Classification Payload
Mass 596.00 kg
Dry Mass 402.00 kg
Total Mass 1080.00 kg
Length 6.70 m
Diameter 2.20 m
Span 6.70 m
Shape Cyl
Manufacturer HSES
Bus Type HS-376L
Phase Status In Orbit
Owner/State SHINW/T

Most Searched